Location: La Brionne
(46.1728°N, 1.7849°E)
Time: 08:00:56
(UTC+00:00)

Cosmos 1992 Rocket - Pass Details

Date: 16 June 2021
Orbit: 758 x 766 km, 74.0° (Epoch: 31 July)

Event Time Altitude Azimuth Distance (km) Brightness Sun altitude
Exits shadow 22:32:33 33° 155° (SSE) 1,256 4.5 -18.1°
Maximum altitude 22:34:24 48° 105° (ESE) 994 4.3 -18.2°
Drops below altitude 10° 22:39:25 10° 32° (NNE) 2,307 7.0 -18.4°
Sets 22:41:52 0° 27° (NNE) 3,239 8.0 -18.6°
